Probability
0 0 0 0 0 0 0 0 0 0 0 0 0 0 0 0 0 0 0 0 0 0 0 0 0 3 10 16 26 35 35 55 65 65 74 90 90 90
0 0 0 0 0 0 0 0 0 0 0 0 0 0 0 0 0 0 0 0 0 0 0 0 0 0 0 0 6 3 3 3 6 6 19 45 55 81
0 0 0 0 0 0 0 0 0 0 0 0 0 0 0 0 0 0 0 0 0 0 0 0 0 0 0 0 0 0 0 0 0 3 6 6 13 29
0 0 0 0 0 0 0 0 0 0 0 0 0 0 0 0 0 0 0 0 0 0 0 0 0 0 0 0 0 0 0 0 0 0 0 3 6 6
0 0 0 0 0 0 0 0 0 0 0 0 0 0 0 0 0 0 0 0 0 0 0 0 0 0 0 0 0 0 0 0 0 0 0 0 3 3
0 0 0 0 0 0 0 0 0 0 0 0 0 0 0 0 0 0 0 0 0 0 0 0 0 0 0 0 0 0 0 0 0 0 0 0 0 0
0 0 0 0 0 0 0 0 0 0 0 0 0 0 0 0 0 0 0 0 0 0 0 0 0 0 0 0 0 0 0 0 0 0 0 0 0 0
0 0 0 0 0 0 0 0 0 0 0 0 0 0 0 0 0 0 0 0 0 0 0 0 0 0 0 0 0 0 0 0 0 0 0 0 0 0
0 0 0 0 0 0 0 0 0 0 0 0 0 0 0 0 0 0 0 0 0 0 0 0 0 0 0 0 0 0 0 0 0 0 0 0 0 0
0 0 0 0 0 0 0 0 0 0 0 0 0 0 0 0 0 0 0 0 0 0 0 0 0 0 0 0 0 0 0 0 0 0 0 0 0 0
0 0 0 0 0 0 0 0 0 0 0 0 0 0 0 0 0 0 0 0 0 0 0 0 0 0 0 0 0 0 0 0 0 0 0 0 0 0
0 0 0 0 0 0 0 0 0 0 0 0 0 0 0 0 0 0 0 0 0 0 0 0 0 0 0 0 0 0 0 0 0 0 0 0 0 0
0 0 0 0 0 0 0 0 0 0 0 0 0 0 0 0 0 0 0 0 0 0 0 0 0 0 0 0 0 0 0 0 0 0 0 0 0 0
0 0 0 0 0 0 0 0 0 0 0 0 0 0 0 0 0 0 0 0 0 0 0 0 0 0 0 0 0 0 0 0 0 0 0 0 0 0
0 0 0 0 0 0 0 0 0 0 0 0 0 0 0 0 0 0 0 0 0 0 0 0 0 0 0 0 0 0 0 0 0 0 0 0 0 0
0 0 0 0 0 0 0 0 0 0 0 0 0 0 0 0 0 0 0 0 0 0 0 0 0 0 0 0 0 0 0 0 0 0 0 0 0 0
0 0 0 0 0 0 0 0 0 0 0 0 0 0 0 0 0 0 0 0 0 0 0 0 0 0 0 0 0 0 0 0 0 0 0 0 0 0
0 0 0 0 0 0 0 0 0 0 0 0 0 0 0 0 0 0 0 0 0 0 0 0 0 0 0 0 0 0 0 0 0 0 0 0 0 0
0 0 0 0 0 0 0 0 0 0 0 0 0 0 0 0 0 0 0 0 0 0 0 0 0 0 0 0 0 0 0 0 0 0 0 0 0 0
0 0 0 0 0 0 0 0 0 0 0 0 0 0 0 0 0 0 0 0 0 0 0 0 0 0 0 0 0 0 0 0 0 0 0 0 0 0
0 0 0 0 0 0 0 0 0 0 0 0 0 0 0 0 0 0 0 0 0 0 0 0 0 0 0 0 0 0 0 0 0 0 0 0 0 0
0 0 0 0 0 0 0 0 0 0 0 0 0 0 0 0 0 0 0 0 0 0 0 0 0 0 0 0 0 0 0 0 0 0 0 0 0 0
0 0 0 0 0 0 0 0 0 0 0 0 0 0 0 0 0 0 0 0 0 0 0 0 0 0 0 0 0 0 0 0 0 0 0 0 0 0
Height
5781 5781 5782 5783 5785 5786 5789 5791 5794 5797 5800 5803 5806 5809 5812 5815 5817 5820 5823 5825 5828 5831 5834 5836 5839 5841 5844 5846 5849 5851 5853 5856 5858 5860 5862 5864 5866 5868
5781 5781 5781 5782 5783 5784 5786 5788 5790 5793 5796 5799 5801 5804 5807 5809 5811 5814 5816 5818 5821 5823 5826 5829 5831 5834 5836 5839 5841 5844 5846 5848 5850 5853 5855 5857 5859 5860
5781 5780 5780 5780 5781 5782 5783 5785 5788 5790 5792 5795 5797 5799 5801 5803 5805 5807 5809 5811 5813 5816 5818 5820 5823 5825 5828 5830 5833 5835 5838 5840 5842 5844 5846 5848 5850 5852
5780 5780 5780 5779 5780 5780 5782 5783 5785 5787 5789 5790 5793 5794 5796 5797 5799 5801 5802 5804 5806 5808 5810 5812 5814 5816 5819 5821 5824 5826 5828 5830 5832 5835 5837 5839 5841 5843
5780 5780 5779 5779 5779 5779 5780 5781 5782 5784 5785 5787 5788 5789 5791 5792 5793 5794 5795 5797 5798 5800 5801 5803 5805 5807 5809 5811 5814 5816 5818 5820 5822 5824 5826 5828 5830 5832
5779 5779 5778 5778 5777 5777 5778 5779 5780 5781 5782 5783 5784 5785 5786 5786 5787 5788 5789 5790 5791 5793 5794 5795 5797 5798 5800 5802 5804 5805 5807 5809 5811 5812 5814 5816 5818 5820
5778 5778 5777 5776 5776 5776 5776 5777 5777 5778 5778 5779 5780 5780 5780 5781 5782 5782 5783 5783 5784 5785 5786 5787 5788 5789 5790 5791 5793 5794 5796 5798 5799 5801 5802 5804 5806 5808
5777 5776 5776 5775 5775 5774 5774 5774 5774 5774 5775 5775 5775 5775 5775 5775 5775 5776 5776 5777 5777 5778 5778 5778 5779 5780 5780 5781 5782 5783 5785 5786 5787 5788 5790 5791 5793 5794
5775 5775 5774 5773 5772 5772 5771 5771 5771 5770 5770 5770 5770 5769 5769 5769 5769 5769 5769 5769 5770 5770 5770 5769 5770 5771 5771 5771 5772 5773 5774 5775 5776 5777 5778 5779 5780 5781
5773 5772 5772 5771 5770 5769 5769 5768 5767 5766 5766 5765 5765 5764 5763 5763 5763 5763 5762 5762 5762 5762 5762 5762 5761 5762 5762 5762 5762 5763 5763 5764 5765 5765 5766 5767 5768 5769
5771 5770 5769 5768 5767 5766 5765 5764 5763 5762 5761 5760 5759 5758 5758 5757 5757 5756 5756 5755 5755 5754 5754 5754 5753 5753 5753 5753 5753 5753 5753 5753 5754 5754 5755 5755 5756 5756
5768 5767 5765 5764 5763 5761 5760 5759 5758 5757 5756 5755 5754 5753 5752 5751 5750 5750 5749 5748 5747 5746 5745 5745 5745 5745 5745 5744 5744 5744 5743 5743 5743 5743 5743 5743 5743 5744
5765 5763 5761 5760 5758 5757 5755 5754 5753 5752 5750 5749 5748 5747 5746 5745 5744 5742 5741 5741 5740 5739 5738 5737 5736 5735 5736 5736 5735 5734 5733 5733 5733 5733 5732 5732 5732 5732
5761 5759 5757 5755 5753 5752 5750 5748 5747 5746 5744 5743 5742 5740 5739 5738 5736 5735 5734 5733 5731 5730 5729 5728 5727 5727 5726 5726 5726 5725 5723 5723 5723 5722 5722 5721 5721 5720
5756 5754 5752 5750 5748 5746 5744 5742 5741 5739 5738 5736 5735 5733 5732 5730 5729 5727 5726 5724 5723 5722 5720 5719 5718 5717 5717 5716 5716 5715 5714 5713 5712 5711 5711 5710 5710 5709
5750 5748 5746 5744 5742 5740 5738 5736 5734 5733 5731 5729 5727 5726 5724 5722 5721 5719 5718 5716 5715 5713 5711 5710 5709 5708 5707 5706 5706 5705 5704 5703 5702 5700 5700 5699 5698 5697
5744 5742 5740 5738 5735 5733 5731 5729 5727 5725 5723 5721 5720 5718 5716 5714 5712 5710 5709 5707 5706 5704 5702 5700 5699 5697 5697 5696 5695 5694 5693 5692 5691 5689 5688 5688 5686 5685
5737 5735 5733 5731 5729 5726 5724 5722 5719 5717 5715 5713 5711 5709 5707 5705 5703 5701 5699 5698 5696 5694 5692 5690 5689 5687 5686 5685 5683 5682 5681 5679 5678 5677 5676 5675 5675 5673
5730 5728 5726 5723 5721 5719 5716 5714 5711 5709 5707 5704 5702 5700 5698 5696 5693 5691 5689 5687 5685 5683 5681 5679 5677 5676 5675 5674 5672 5668 5667 5666 5665 5664 5662 5661 5661 5661
5721 5719 5717 5715 5713 5710 5708 5705 5702 5700 5697 5695 5693 5690 5688 5685 5683 5681 5678 5676 5674 5672 5670 5667 5664 5663 5661 5660 5660 5657 5653 5651 5650 5649 5648 5647 5647 5647
5712 5710 5708 5706 5704 5701 5698 5696 5693 5690 5687 5685 5682 5680 5677 5675 5672 5669 5666 5664 5661 5659 5657 5654 5651 5649 5646 5645 5644 5644 5640 5636 5634 5633 5633 5632 5632 5632
5703 5701 5699 5696 5694 5691 5688 5685 5683 5680 5677 5674 5671 5668 5665 5663 5660 5657 5654 5651 5648 5645 5643 5640 5637 5634 5631 5629 5628 5627 5625 5622 5619 5617 5615 5614 5613 5614
5693 5691 5688 5686 5683 5681 5678 5675 5672 5669 5666 5662 5659 5656 5653 5650 5647 5643 5640 5637 5633 5630 5628 5625 5622 5619 5615 5612 5610 5608 5607 5605 5602 5601 5599 5596 5594 5594
Wind_Speed
1 2 4 7 10 12 15 16 17 18 20 21 22 23 24 25 26 27 28 30 30 31 31 31 31 30 30 30 30 30 30 30 29 29 30 29 29 29
3 2 3 4 7 9 11 13 14 16 18 20 21 23 24 25 26 27 28 30 31 32 32 33 33 34 33 33 33 32 33 33 33 33 32 32 32 32
3 3 3 3 5 7 8 10 12 14 16 18 20 21 23 24 26 27 28 30 31 32 33 34 34 35 35 35 35 35 35 35 36 36 36 36 36 35
4 3 3 3 4 5 7 9 10 12 14 16 18 19 21 22 24 26 27 29 30 31 33 34 34 35 36 36 37 37 38 38 39 39 39 39 39 39
5 4 4 4 4 4 6 8 9 11 12 14 16 17 19 21 22 23 25 26 28 30 32 33 33 35 36 37 37 38 39 39 40 41 41 41 41 42
6 5 5 5 5 5 6 8 9 11 12 14 15 17 18 20 21 23 23 24 26 28 30 31 33 34 36 37 38 39 39 40 40 41 43 43 44 44
7 6 6 7 7 7 8 9 10 11 12 13 15 17 18 20 21 22 24 25 26 26 28 30 31 33 34 36 37 38 39 39 40 41 43 44 45 46
8 8 8 8 8 9 9 10 11 12 13 14 15 17 18 19 21 22 23 24 26 26 27 29 30 31 33 34 36 37 38 39 39 41 42 44 45 46
9 9 9 9 10 10 11 11 12 13 14 15 16 17 18 19 20 21 22 23 25 25 27 28 29 29 31 32 34 36 37 38 39 40 41 42 43 44
10 11 11 11 11 12 12 13 14 14 15 16 17 18 19 19 20 21 22 23 25 25 26 27 29 29 30 30 31 32 34 36 37 38 39 40 42 43
12 12 12 13 13 14 14 14 15 16 17 18 18 19 20 20 21 22 23 24 25 26 27 27 28 29 30 31 31 32 33 34 36 37 38 40 41 42
13 14 14 15 15 16 16 16 17 17 18 19 19 20 21 21 22 23 24 25 26 27 27 28 29 29 30 31 32 33 33 34 35 36 37 39 40 40
15 16 16 17 17 18 18 18 19 19 20 20 21 21 22 22 23 24 25 26 26 27 28 29 29 29 30 30 32 33 33 33 34 35 36 37 38 39
17 18 18 19 19 19 20 20 20 21 21 22 22 23 23 24 24 25 26 26 27 27 28 29 29 30 30 30 30 32 33 34 34 35 36 37 38 38
19 20 20 21 21 21 21 21 22 22 23 23 24 24 25 25 26 26 26 27 27 28 29 29 30 31 31 31 31 32 33 34 35 36 36 36 37 37
21 22 22 22 23 23 23 23 23 24 24 25 25 26 26 27 27 27 27 28 28 29 30 31 32 32 32 33 33 33 34 34 35 36 36 37 37 37
23 23 24 24 24 24 25 25 25 26 26 26 27 27 28 28 28 29 29 29 30 30 32 33 33 33 33 34 34 35 36 36 36 37 37 37 38 38
24 24 25 25 25 26 26 26 27 27 28 28 28 29 29 29 30 30 31 31 31 32 33 34 34 35 35 36 36 37 37 37 38 38 38 38 38 39
26 26 26 27 27 27 28 28 28 29 29 30 30 31 31 31 32 32 33 33 34 34 35 36 36 37 37 37 37 39 39 39 39 40 40 40 39 39
28 28 29 29 29 30 30 30 30 31 31 32 32 33 33 34 34 35 35 36 36 37 37 39 39 40 40 39 39 40 42 43 42 42 42 42 42 41
30 30 31 31 31 32 32 32 33 33 33 34 34 35 35 36 37 37 38 39 39 40 40 41 42 43 43 43 42 42 43 45 46 45 45 45 44 44
32 32 33 33 34 34 34 35 35 35 36 36 37 37 38 38 39 40 41 41 42 42 43 43 44 45 46 47 46 46 46 47 48 49 49 49 49 48
34 34 35 36 36 37 37 37 38 38 38 39 39 40 40 41 42 43 43 44 44 45 46 46 47 48 49 51 51 51 51 51 52 52 52 54 54 53
Wind_Direction
336 258 239 232 229 227 225 226 227 227 226 227 230 231 232 233 236 237 239 240 241 242 243 243 243 244 243 243 244 245 245 245 246 247 248 249 250 250
345 317 272 246 238 232 230 230 231 231 229 229 232 234 236 238 240 241 242 242 243 244 244 244 246 245 246 246 246 246 247 247 247 248 249 250 251 251
347 323 295 269 245 238 235 234 235 235 233 234 237 240 241 243 243 245 246 245 245 246 246 247 247 247 248 248 249 248 248 248 249 249 250 251 252 253
354 340 313 290 264 250 244 242 241 241 239 240 242 245 246 247 248 250 250 249 249 249 249 249 249 249 250 251 250 250 251 251 251 250 251 252 253 254
342 336 328 313 292 267 255 250 248 248 248 248 248 249 250 251 252 254 254 253 253 251 250 250 250 251 252 252 252 252 253 254 253 252 252 253 254 255
330 325 321 316 305 290 273 264 259 256 257 258 257 257 258 257 257 258 258 258 257 255 253 252 252 253 254 254 255 255 255 256 255 255 255 254 254 255
322 317 313 308 300 292 282 275 270 268 266 265 264 264 265 264 263 263 262 262 262 260 258 257 256 256 256 256 256 256 257 257 258 257 257 256 256 255
320 315 309 303 297 292 287 283 280 277 275 273 271 270 269 268 266 266 266 265 265 265 264 263 262 260 260 259 258 257 258 259 260 260 259 259 258 258
325 318 312 307 301 296 292 288 285 283 281 279 278 277 274 271 269 268 268 268 268 267 267 266 264 264 264 263 262 260 260 261 262 262 262 261 261 260
326 321 315 310 307 302 298 295 291 289 287 285 283 281 278 276 274 273 272 272 271 269 268 268 267 266 266 265 265 265 262 262 262 263 263 262 262 261
325 321 317 313 308 305 302 299 296 294 292 290 287 285 283 281 279 278 277 276 276 274 272 271 270 269 269 268 267 267 267 266 264 264 264 264 264 264
321 319 316 313 309 307 304 301 299 296 293 292 290 288 286 283 282 280 279 278 277 277 277 275 273 271 271 271 270 269 270 269 268 268 267 266 266 265
318 316 314 312 310 306 303 301 299 298 297 294 292 291 289 287 285 283 282 281 280 278 278 277 276 274 272 272 272 273 273 273 272 272 271 271 270 268
316 314 313 311 309 307 304 301 299 297 296 295 294 292 291 290 289 287 286 284 283 282 280 280 278 277 276 274 273 274 275 275 274 273 273 273 273 271
312 311 310 309 308 306 304 302 300 298 297 296 294 293 291 290 290 289 288 286 284 283 282 281 280 279 278 277 275 275 274 275 275 274 274 273 272 271
308 308 308 307 306 305 304 302 300 298 297 296 295 294 292 291 290 288 287 287 286 284 283 282 282 281 279 278 278 276 275 275 275 275 275 275 274 272
304 306 307 306 305 304 303 301 300 298 297 296 296 295 294 292 290 289 288 287 286 285 285 285 284 282 281 280 279 278 276 275 275 275 275 275 274 273
301 303 304 305 304 304 303 301 299 297 296 295 295 295 294 292 291 289 288 287 286 286 285 284 283 283 281 281 279 278 278 277 276 277 275 275 274 273
299 300 302 303 303 302 302 301 299 297 295 294 294 293 293 292 291 290 289 287 286 286 285 285 283 282 281 281 281 281 280 278 278 277 277 276 274 273
296 298 299 301 302 302 302 301 300 298 296 295 293 292 292 292 291 290 289 288 287 286 286 285 285 284 283 281 280 280 280 280 278 277 276 275 274 273
295 296 298 300 301 302 301 300 300 299 297 296 294 293 292 292 292 291 290 289 288 287 286 286 286 285 285 283 282 280 279 279 279 277 276 275 274 273
294 295 297 298 300 301 301 300 299 299 298 296 295 294 293 293 292 291 290 289 288 288 287 286 286 286 285 284 283 281 279 278 278 278 277 276 274 272
293 294 296 298 299 300 300 299 299 298 297 296 295 295 294 293 293 292 291 290 289 288 287 286 286 286 285 284 284 282 280 278 277 276 277 277 276 274